Location: Vancouver
(49.2500°N, 123.1330°W)
Time: 09:25:20
(UTC-07:00)

AO-27 - Visible Passes

Search period start: 28 July 2014 00:00
Search period end: 07 August 2014 00:00
Orbit: 786 x 799 km, 98.7° (Epoch: 27 July)

Date Brightness Start Highest point End Pass type
(mag) Time Alt. Az. Time Alt. Az. Time Alt. Az.
28 Jul 8.5 03:07:01 10° NNE 03:12:00 44° E 03:15:35 18° SSE visible
28 Jul 8.7 04:46:51 10° N 04:51:22 31° WNW 04:55:51 10° WSW visible
29 Jul 9.3 02:38:39 10° NE 02:42:59 26° E 02:46:23 14° SE visible
29 Jul 8.1 04:17:45 10° N 04:22:46 50° WNW 04:27:09 13° SW visible
30 Jul 9.9 02:10:52 10° NE 02:13:51 15° E 02:16:49 10° ESE visible
30 Jul 7.6 03:48:50 10° NNE 03:54:04 85° WNW 03:57:57 18° SSW visible
31 Jul 8.1 03:20:06 10° NNE 03:25:14 57° E 03:28:45 20° S visible
31 Jul 9.0 05:00:16 10° N 05:04:25 25° WNW 05:08:34 10° WSW visible
01 Aug 8.9 02:51:36 10° NNE 02:56:17 33° E 02:59:32 17° SSE visible
01 Aug 8.4 04:31:04 10° N 04:35:53 40° WNW 04:40:19 12° SW visible
02 Aug 9.7 02:23:29 10° NE 02:27:13 20° E 02:30:20 12° SE visible
02 Aug 7.7 04:02:04 10° N 04:07:14 67° WNW 04:11:06 18° SSW visible
03 Aug 10.1 01:56:41 10° ENE 01:58:00 11° E 01:59:19 10° E visible
03 Aug 7.8 03:33:15 10° NNE 03:38:27 73° ESE 03:41:54 22° S visible
04 Aug 8.5 03:04:37 10° NNE 03:09:34 42° E 03:12:41 21° SSE visible
04 Aug 8.7 04:44:24 10° N 04:48:58 32° WNW 04:53:27 10° SW visible
05 Aug 9.3 02:36:18 10° NE 02:40:32 25° E 02:43:29 16° SE visible
05 Aug 8.0 04:15:19 10° N 04:20:22 53° WNW 04:24:15 17° SW visible
06 Aug 10.0 02:08:37 10° NE 02:11:23 14° E 02:14:09 10° ESE visible
06 Aug 7.6 03:46:25 10° NNE 03:51:39 88° WNW 03:55:02 22° SSW visible
